GW6181 Weather Reports


time (UTC)temp
C
wind
direction
speed
KPH
gust
KPH
rain 1hr
cm
rain 24hr
cm
rain mn
cm
humidity
%
barometer
mb
20260505171516 28 295 4.8 8.0 0.00 0.00 0.00 35 1007.0
20260505171017 28 175 0.0 11.3 0.00 0.00 0.00 34 1007.0
20260505170517 28 251 9.7 12.9 0.00 0.00 0.00 34 1007.0
20260505170016 27 12 0.0 3.2 0.00 0.00 0.00 37 1007.0
20260505165517 27 341 4.8 8.0 0.00 0.00 0.00 36 1007.0
20260505165018 27 320 3.2 6.4 0.00 0.00 0.00 37 1007.0
20260505164516 27 187 4.8 8.0 0.00 0.00 0.00 36 1007.0
20260505164016 27 174 1.6 4.8 0.00 0.00 0.00 38 1007.0
20260505163516 26 144 3.2 4.8 0.00 0.00 0.00 39 1007.0
20260505163017 26 269 3.2 4.8 0.00 0.00 0.00 39 1007.0
20260505162517 26 212 0.0 4.8 0.00 0.00 0.00 39 1008.0
20260505162018 26 272 4.8 8.0 0.00 0.00 0.00 39 1008.0
20260505161516 26 343 3.2 6.4 0.00 0.00 0.00 39 1008.0
20260505161017 25 106 1.6 3.2 0.00 0.00 0.00 40 1008.0
20260505160517 25 234 1.6 4.8 0.00 0.00 0.00 40 1008.0
20260505153016 23 198 0.0 4.8 0.00 0.00 0.00 46 1008.0
20260505152518 22 116 0.0 4.8 0.00 0.00 0.00 48 1008.0
20260505152017 22 93 0.0 3.2 0.00 0.00 0.00 48 1009.0
20260505151517 22 172 3.2 4.8 0.00 0.00 0.00 47 1009.0
20260505151017 22 276 0.0 4.8 0.00 0.00 0.00 50 1009.0
20260505150518 21 194 4.8 9.7 0.00 0.00 0.00 51 1009.0
20260505140516 18 183 0.0 8.0 0.00 0.00 0.00 59 1010.0
20260505125017 16 197 8.0 9.7 0.00 0.00 0.00 66 1010.0
20260505124519 16 311 4.8 9.7 0.00 0.00 0.00 67 1010.0
20260505124017 16 243 3.2 8.0 0.00 0.00 0.00 68 1009.0
20260505123517 15 271 3.2 11.3 0.00 0.00 0.00 69 1009.0
20260505123017 15 287 6.4 11.3 0.00 0.00 0.00 70 1009.0
20260505122517 15 309 3.2 4.8 0.00 0.00 0.00 70 1009.0
20260505122016 15 253 4.8 6.4 0.00 0.00 0.00 70 1009.0
20260505121517 15 261 6.4 6.4 0.00 0.00 0.00 69 1009.0
20260505121016 15 193 4.8 6.4 0.00 0.00 0.00 71 1009.0
20260505120517 15 37 1.6 8.0 0.00 0.00 0.00 70 1009.0
20260505120017 15 88 1.6 6.4 0.00 0.00 0.00 70 1009.0
20260505115516 14 215 4.8 9.7 0.00 0.00 0.00 71 1009.0
20260505115017 14 168 8.0 9.7 0.00 0.00 0.00 72 1009.0
20260505114517 14 292 4.8 4.8 0.00 0.00 0.00 72 1010.0
20260505114017 14 249 3.2 6.4 0.00 0.00 0.00 72 1009.0
20260505113517 14 161 3.2 6.4 0.00 0.00 0.00 74 1009.0
20260505113017 14 214 4.8 8.0 0.00 0.00 0.00 73 1010.0
20260505112518 14 118 1.6 6.4 0.00 0.00 0.00 74 1009.0
20260505112016 14 236 0.0 4.8 0.00 0.00 0.00 75 1009.0
20260505111517 13 195 4.8 11.3 0.00 0.00 0.00 77 1010.0
20260505111017 13 197 4.8 8.0 0.00 0.00 0.00 79 1010.0
20260505110517 13 252 3.2 8.0 0.00 0.00 0.00 80 1009.0
20260505102018 14 241 6.4 8.0 0.00 0.00 0.00 72 1009.0
20260505101518 15 212 1.6 8.0 0.00 0.00 0.00 65 1009.0
20260505101016 15 281 1.6 8.0 0.00 0.00 0.00 64 1009.0
20260505100516 14 274 9.7 12.9 0.00 0.00 0.00 65 1009.0
20260505100017 14 165 3.2 9.7 0.00 0.00 0.00 65 1009.0
20260505095516 14 292 0.0 6.4 0.00 0.00 0.00 65 1009.0
20260505095016 14 207 1.6 6.4 0.00 0.00 0.00 65 1009.0
20260505094520 14 173 3.2 6.4 0.00 0.00 0.00 66 1009.0
20260505094016 14 266 1.6 6.4 0.00 0.00 0.00 66 1009.0
20260505093516 13 254 3.2 4.8 0.00 0.00 0.00 66 1009.0
20260505093018 13 178 1.6 6.4 0.00 0.00 0.00 66 1009.0
20260505092516 13 219 3.2 4.8 0.00 0.00 0.00 66 1008.0
20260505092016 13 231 0.0 3.2 0.00 0.00 0.00 66 1009.0
20260505091516 14 284 0.0 4.8 0.00 0.00 0.00 66 1009.0
20260505091016 14 218 0.0 4.8 0.00 0.00 0.00 66 1009.0
20260505090516 14 248 0.0 4.8 0.00 0.00 0.00 66 1008.0
20260505090016 14 163 4.8 4.8 0.00 0.00 0.00 65 1008.0
20260505085519 13 177 4.8 4.8 0.00 0.00 0.00 66 1008.0
20260505085016 13 154 3.2 4.8 0.00 0.00 0.00 66 1008.0
20260505084517 14 190 3.2 3.2 0.00 0.00 0.00 65 1008.0
20260505084016 14 35 0.0 4.8 0.00 0.00 0.00 65 1008.0
20260505083517 14 292 1.6 4.8 0.00 0.00 0.00 64 1008.0
20260505083016 14 265 3.2 4.8 0.00 0.00 0.00 64 1008.0
20260505082516 14 249 8.0 8.0 0.00 0.00 0.00 64 1008.0
20260505082016 14 315 0.0 4.8 0.00 0.00 0.00 64 1008.0
20260505081517 14 241 1.6 8.0 0.00 0.00 0.00 64 1008.0
20260505081017 14 182 3.2 3.2 0.00 0.00 0.00 65 1008.0
20260505080516 14 283 3.2 3.2 0.00 0.00 0.00 64 1008.0
20260505080017 14 180 0.0 6.4 0.00 0.00 0.00 65 1008.0
20260505075517 14 300 0.0 4.8 0.00 0.00 0.00 64 1008.0
20260505075017 14 200 1.6 8.0 0.00 0.00 0.00 64 1008.0
20260505074517 14 319 0.0 6.4 0.00 0.00 0.00 64 1008.0
20260505074016 14 169 4.8 4.8 0.00 0.00 0.00 64 1008.0
20260505073516 14 186 4.8 6.4 0.00 0.00 0.00 64 1008.0
20260505073016 14 302 0.0 6.4 0.00 0.00 0.00 64 1008.0
20260505072517 14 11 1.6 6.4 0.00 0.00 0.00 65 1008.0
20260505072017 14 227 4.8 4.8 0.00 0.00 0.00 65 1008.0
20260505071518 14 174 0.0 8.0 0.00 0.00 0.00 65 1008.0
20260505071017 14 168 3.2 4.8 0.00 0.00 0.00 65 1008.0
20260505070517 14 271 1.6 6.4 0.00 0.00 0.00 65 1008.0
20260505070017 14 235 4.8 4.8 0.00 0.00 0.00 65 1008.0
20260505065517 14 328 3.2 17.7 0.00 0.00 0.00 65 1008.0
20260505065017 14 200 0.0 4.8 0.00 0.00 0.00 66 1008.0
20260505064516 13 168 0.0 6.4 0.00 0.00 0.00 66 1008.0
20260505064016 13 149 4.8 4.8 0.00 0.00 0.00 66 1008.0
20260505063517 14 170 1.6 4.8 0.00 0.00 0.00 66 1009.0
20260505063016 13 309 1.6 8.0 0.00 0.00 0.00 66 1009.0
20260505062517 13 140 0.0 6.4 0.00 0.00 0.00 66 1009.0
20260505062016 13 176 3.2 4.8 0.00 0.00 0.00 66 1008.0
20260505061516 13 167 1.6 4.8 0.00 0.00 0.00 67 1008.0
20260505061016 13 165 3.2 4.8 0.00 0.00 0.00 67 1009.0
20260505060516 13 296 1.6 4.8 0.00 0.00 0.00 67 1009.0
20260505060017 13 328 0.0 4.8 0.00 0.00 0.00 67 1009.0
20260505055516 13 301 0.0 3.2 0.00 0.00 0.00 66 1009.0
20260505055017 13 221 0.0 1.6 0.00 0.00 0.00 66 1009.0
20260505054516 13 251 1.6 3.2 0.00 0.00 0.00 66 1009.0
20260505054016 13 202 0.0 4.8 0.00 0.00 0.00 67 1009.0
20260505053516 13 283 1.6 3.2 0.00 0.00 0.00 67 1008.0
20260505053016 13 237 1.6 3.2 0.00 0.00 0.00 66 1009.0
20260505052516 13 286 0.0 6.4 0.00 0.00 0.00 66 1009.0
20260505052016 13 143 0.0 3.2 0.00 0.00 0.00 65 1009.0
20260505051516 13 124 1.6 3.2 0.00 0.00 0.00 65 1009.0
20260505051016 13 217 3.2 11.3 0.00 0.00 0.00 64 1009.0
20260505050516 13 140 1.6 6.4 0.00 0.00 0.00 64 1009.0
20260505041516 14 156 3.2 4.8 0.00 0.00 0.00 57 1009.0
20260505041017 14 142 1.6 4.8 0.00 0.00 0.00 56 1009.0
20260505040518 14 167 3.2 4.8 0.00 0.00 0.00 56 1009.0
20260505040016 14 163 3.2 4.8 0.00 0.00 0.00 55 1009.0
20260505035516 15 201 0.0 4.8 0.00 0.00 0.00 54 1009.0
20260505035016 15 186 3.2 3.2 0.00 0.00 0.00 54 1009.0
20260505034516 15 327 1.6 4.8 0.00 0.00 0.00 53 1009.0
20260505034016 15 165 3.2 4.8 0.00 0.00 0.00 53 1009.0
20260505033517 15 167 3.2 4.8 0.00 0.00 0.00 53 1009.0
20260505033016 15 177 3.2 4.8 0.00 0.00 0.00 52 1009.0
20260505032516 15 163 3.2 4.8 0.00 0.00 0.00 52 1009.0
20260505032017 15 92 1.6 4.8 0.00 0.00 0.00 51 1009.0
20260505031516 15 123 3.2 3.2 0.00 0.00 0.00 50 1009.0
20260505031016 15 175 1.6 4.8 0.00 0.00 0.00 49 1009.0
20260505030516 15 22 3.2 4.8 0.00 0.00 0.00 49 1009.0
20260505030016 15 175 3.2 4.8 0.00 0.00 0.00 48 1009.0
20260505025516 15 169 0.0 3.2 0.00 0.00 0.00 48 1009.0
20260505025016 15 32 1.6 4.8 0.00 0.00 0.00 47 1009.0
20260505024516 15 144 0.0 4.8 0.00 0.00 0.00 47 1009.0
20260505024016 15 175 3.2 3.2 0.00 0.00 0.00 47 1009.0
20260505023516 15 40 0.0 1.6 0.00 0.00 0.00 47 1009.0
20260505023016 16 168 0.0 3.2 0.00 0.00 0.00 46 1009.0
20260505022516 16 267 0.0 3.2 0.00 0.00 0.00 46 1009.0
20260505022017 16 164 0.0 4.8 0.00 0.00 0.00 45 1009.0
20260505021516 16 176 0.0 3.2 0.00 0.00 0.00 45 1009.0
20260505021018 16 338 0.0 3.2 0.00 0.00 0.00 44 1009.0
20260505020517 16 293 0.0 4.8 0.00 0.00 0.00 44 1009.0
20260505020017 16 306 0.0 4.8 0.00 0.00 0.00 44 1009.0
20260505015516 16 142 0.0 3.2 0.00 0.00 0.00 44 1009.0
20260505015016 16 176 1.6 3.2 0.00 0.00 0.00 43 1009.0
20260505014516 16 296 0.0 4.8 0.00 0.00 0.00 43 1009.0
20260505014017 17 1 0.0 4.8 0.00 0.00 0.00 43 1009.0
20260505013516 17 316 1.6 4.8 0.00 0.00 0.00 42 1009.0
20260505013017 17 144 3.2 4.8 0.00 0.00 0.00 42 1009.0
20260505012517 17 188 1.6 6.4 0.00 0.00 0.00 42 1009.0
20260505012016 17 179 1.6 4.8 0.00 0.00 0.00 42 1009.0
20260505011517 17 176 1.6 4.8 0.00 0.00 0.00 42 1009.0
20260505011016 17 180 3.2 4.8 0.00 0.00 0.00 42 1009.0
20260505010516 17 255 1.6 4.8 0.00 0.00 0.00 42 1008.0
20260505010016 17 155 1.6 4.8 0.00 0.00 0.00 41 1008.0
20260505005516 17 221 3.2 3.2 0.00 0.00 0.00 41 1008.0
20260505005016 17 278 3.2 4.8 0.00 0.00 0.00 41 1008.0
20260505004517 17 180 0.0 4.8 0.00 0.00 0.00 41 1008.0
20260505004018 17 124 0.0 4.8 0.00 0.00 0.00 41 1008.0
20260505003517 17 182 0.0 3.2 0.00 0.00 0.00 41 1008.0
20260505003017 17 147 1.6 3.2 0.00 0.00 0.00 40 1008.0
20260505002516 18 84 0.0 4.8 0.00 0.00 0.00 40 1008.0
20260505002016 18 313 1.6 8.0 0.00 0.00 0.00 39 1008.0
20260505001516 18 228 1.6 4.8 0.00 0.00 0.00 39 1008.0
20260505001016 18 278 1.6 4.8 0.00 0.00 0.00 39 1008.0
20260505000517 18 159 1.6 4.8 0.00 0.00 0.00 39 1008.0
20260505000017 18 210 1.6 6.4 0.00 0.00 0.00 38 1008.0
20260504235518 18 138 1.6 6.4 0.00 0.00 0.00 38 1007.0
20260504235016 18 201 3.2 6.4 0.00 0.00 0.00 38 1007.0
20260504234516 19 183 4.8 4.8 0.00 0.00 0.00 38 1007.0
20260504234016 19 25 0.0 4.8 0.00 0.00 0.00 37 1007.0
20260504233516 19 198 3.2 6.4 0.00 0.00 0.00 37 1007.0
20260504233016 19 292 4.8 4.8 0.00 0.00 0.00 37 1007.0
20260504232516 20 295 4.8 4.8 0.00 0.00 0.00 36 1007.0
20260504232022 20 209 1.6 3.2 0.00 0.00 0.00 37 1007.0
20260504231516 20 259 0.0 9.7 0.00 0.00 0.00 36 1007.0
20260504231016 20 191 4.8 4.8 0.00 0.00 0.00 35 1007.0
20260504230517 20 282 4.8 6.4 0.00 0.00 0.00 35 1007.0
20260504230016 20 208 1.6 4.8 0.00 0.00 0.00 35 1007.0
20260504225518 20 186 0.0 8.0 0.00 0.00 0.00 34 1007.0
20260504225016 20 177 1.6 4.8 0.00 0.00 0.00 35 1007.0
20260504224517 20 137 0.0 6.4 0.00 0.00 0.00 34 1007.0
20260504224017 20 164 3.2 14.5 0.00 0.00 0.00 34 1007.0
20260504223517 21 297 1.6 9.7 0.00 0.00 0.00 33 1007.0
20260504223016 21 32 0.0 1.6 0.00 0.00 0.00 34 1007.0
20260504222517 21 189 3.2 11.3 0.00 0.00 0.00 33 1007.0
20260504222016 21 154 0.0 6.4 0.00 0.00 0.00 32 1007.0
20260504221516 21 189 6.4 6.4 0.00 0.00 0.00 32 1007.0
20260504221017 22 267 4.8 11.3 0.00 0.00 0.00 31 1007.0
20260504220516 22 315 0.0 4.8 0.00 0.00 0.00 32 1007.0
20260504220016 22 234 1.6 4.8 0.00 0.00 0.00 32 1007.0
20260504215516 22 263 3.2 6.4 0.00 0.00 0.00 30 1007.0
20260504215016 23 218 1.6 8.0 0.00 0.00 0.00 29 1007.0
20260504214517 23 315 0.0 4.8 0.00 0.00 0.00 30 1007.0
20260504214017 23 196 1.6 8.0 0.00 0.00 0.00 29 1007.0
20260504213517 23 283 0.0 4.8 0.00 0.00 0.00 30 1007.0
20260504213016 22 252 0.0 4.8 0.00 0.00 0.00 30 1007.0
20260504212517 22 353 0.0 8.0 0.00 0.00 0.00 30 1007.0
20260504212016 22 308 1.6 6.4 0.00 0.00 0.00 30 1007.0
20260504211518 23 150 1.6 9.7 0.00 0.00 0.00 28 1007.0
20260504211017 23 329 0.0 4.8 0.00 0.00 0.00 28 1007.0
20260504210517 23 284 0.0 6.4 0.00 0.00 0.00 28 1007.0
20260504210016 23 232 1.6 4.8 0.00 0.00 0.00 28 1007.0
20260504205517 24 257 3.2 4.8 0.00 0.00 0.00 29 1007.0
20260504205017 23 238 4.8 6.4 0.00 0.00 0.00 29 1007.0
20260504204516 24 217 8.0 8.0 0.00 0.00 0.00 28 1007.0
20260504204017 23 258 0.0 4.8 0.00 0.00 0.00 28 1007.0
20260504203517 23 249 3.2 4.8 0.00 0.00 0.00 28 1007.0
20260504203016 24 258 8.0 9.7 0.00 0.00 0.00 27 1007.0
20260504202516 24 290 3.2 6.4 0.00 0.00 0.00 28 1007.0
20260504202017 24 230 3.2 8.0 0.00 0.00 0.00 27 1007.0
20260504201517 23 295 3.2 6.4 0.00 0.00 0.00 28 1007.0
20260504201016 23 205 4.8 9.7 0.00 0.00 0.00 27 1007.0
20260504200516 23 63 1.6 4.8 0.00 0.00 0.00 27 1007.0
20260504200016 23 260 1.6 11.3 0.00 0.00 0.00 27 1008.0
20260504195517 23 233 4.8 14.5 0.00 0.00 0.00 26 1007.0
20260504195016 24 282 6.4 9.7 0.00 0.00 0.00 26 1007.0
20260504194517 24 328 1.6 6.4 0.00 0.00 0.00 26 1007.0
20260504194016 24 189 8.0 8.0 0.00 0.00 0.00 26 1007.0
20260504193516 23 258 9.7 9.7 0.00 0.00 0.00 26 1007.0
20260504193017 23 302 3.2 9.7 0.00 0.00 0.00 27 1007.0
20260504192516 23 250 1.6 8.0 0.00 0.00 0.00 28 1007.0
20260504192017 23 324 0.0 6.4 0.00 0.00 0.00 28 1007.0
20260504191517 23 190 3.2 6.4 0.00 0.00 0.00 28 1007.0
20260504191017 23 80 3.2 4.8 0.00 0.00 0.00 27 1008.0
20260504190516 23 309 3.2 6.4 0.00 0.00 0.00 28 1008.0
20260504190017 23 230 4.8 6.4 0.00 0.00 0.00 28 1008.0
20260504185516 23 241 4.8 9.7 0.00 0.00 0.00 28 1008.0
20260504185016 23 178 4.8 6.4 0.00 0.00 0.00 28 1008.0
20260504184516 23 241 3.2 8.0 0.00 0.00 0.00 27 1008.0
20260504184016 22 283 4.8 9.7 0.00 0.00 0.00 28 1008.0
20260504183516 22 180 3.2 6.4 0.00 0.00 0.00 28 1008.0
20260504183018 23 264 3.2 4.8 0.00 0.00 0.00 27 1008.0
20260504182516 22 255 3.2 8.0 0.00 0.00 0.00 28 1008.0
20260504182016 22 193 11.3 14.5 0.00 0.00 0.00 28 1008.0
20260504181517 22 199 4.8 9.7 0.00 0.00 0.00 27 1009.0
20260504181017 22 306 3.2 8.0 0.00 0.00 0.00 28 1008.0
20260504180516 22 246 3.2 4.8 0.00 0.00 0.00 28 1009.0
20260504180017 22 279 8.0 8.0 0.00 0.00 0.00 28 1009.0
20260504175518 22 145 1.6 8.0 0.00 0.00 0.00 29 1008.0
20260504175016 22 163 6.4 8.0 0.00 0.00 0.00 28 1009.0
20260504174517 22 329 4.8 4.8 0.00 0.00 0.00 30 1009.0
20260504174017 22 207 1.6 6.4 0.00 0.00 0.00 29 1009.0
20260504173517 22 174 0.0 9.7 0.00 0.00 0.00 30 1009.0
20260504173017 22 230 4.8 8.0 0.00 0.00 0.00 30 1009.0
20260504172516 22 211 4.8 4.8 0.00 0.00 0.00 30 1009.0
20260504172018 22 183 4.8 9.7 0.00 0.00 0.00 29 1009.0